This is the latest recevied weather packets stored in our database for station/object EB5AGF-13. If no packets are shown the sender has not sent any weather packets the latest 10 day(s).
| Time | Temp. | Humidity | Pressure | Rain* | Wind** | Luminosity | Snow |
|---|---|---|---|---|---|---|---|
| 1778066934 | 21.11° C | 72% | 1008.4 hPa | 0 mm | 3.13 m/s, 12° | 169 W/m² | - |
| 1778066631 | 21.67° C | 72% | 1008.3 hPa | 0 mm | 3.58 m/s, 38° | 202 W/m² | - |
| 1778066326 | 21.67° C | 72% | 1008.2 hPa | 0 mm | 2.68 m/s, 17° | 270 W/m² | - |
| 1778066023 | 21.11° C | 73% | 1008.4 hPa | 0 mm | 2.68 m/s, 48° | 762 W/m² | - |
| 1778065719 | 22.22° C | 70% | 1008.4 hPa | 0 mm | 2.68 m/s, 79° | 192 W/m² | - |
| 1778065413 | 21.11° C | 73% | 1008.2 hPa | 0 mm | 2.68 m/s, 54° | 734 W/m² | - |
| 1778065112 | 21.67° C | 71% | 1008.2 hPa | 0 mm | 3.58 m/s, 129° | 743 W/m² | - |
| 1778064811 | 21.67° C | 71% | 1008.3 hPa | 0 mm | 2.24 m/s, 79° | 601 W/m² | - |
| 1778064512 | 21.67° C | 71% | 1008.4 hPa | 0 mm | 1.79 m/s, 42° | 206 W/m² | - |
| 1778064212 | 21.67° C | 72% | 1008.4 hPa | 0 mm | 2.24 m/s, 55° | 720 W/m² | - |
| 1778063911 | 21.11° C | 71% | 1008.7 hPa | 0 mm | 2.68 m/s, 9° | 683 W/m² | - |
| 1778063607 | 21.67° C | 71% | 1008.6 hPa | 0 mm | 3.58 m/s, 357° | 643 W/m² | - |
| 1778063304 | 21.67° C | 70% | 1008.4 hPa | 0 mm | 4.47 m/s, 316° | 659 W/m² | - |
| 1778062999 | 21.11° C | 70% | 1008.5 hPa | 0 mm | 3.58 m/s, 25° | 181 W/m² | - |
| 1778062695 | 21.67° C | 71% | 1008.6 hPa | 0 mm | 2.68 m/s, 87° | 667 W/m² | - |
| 1778062391 | 21.11° C | 71% | 1008.6 hPa | 0 mm | 2.68 m/s, 28° | 649 W/m² | - |
| 1778062087 | 21.67° C | 69% | 1008.6 hPa | 0 mm | 2.68 m/s, 39° | 618 W/m² | - |
| 1778061783 | 21.67° C | 69% | 1008.6 hPa | 0 mm | 2.24 m/s, 78° | 584 W/m² | - |
| 1778061478 | 21.67° C | 66% | 1008.6 hPa | 0 mm | 4.47 m/s, 53° | 589 W/m² | - |
| 1778061175 | 22.22° C | 66% | 1008.6 hPa | 0 mm | 2.68 m/s, 28° | 577 W/m² | - |
| 1778060871 | 21.67° C | 67% | 1008.4 hPa | 0 mm | 2.68 m/s, 23° | 573 W/m² | - |
| 1778060567 | 21.67° C | 66% | 1008.5 hPa | 0 mm | 3.13 m/s, 49° | 553 W/m² | - |
| 1778060262 | 21.67° C | 66% | 1008.4 hPa | 0 mm | 1.79 m/s, 58° | 581 W/m² | - |
| 1778059959 | 21.67° C | 68% | 1008.4 hPa | 0 mm | 0.45 m/s, 78° | 149 W/m² | - |
| 1778059655 | 21.11° C | 69% | 1008.6 hPa | 0 mm | 1.79 m/s, 79° | 544 W/m² | - |
* Rain latest hour (hover to see other rain measurements)
** Current wind speed in m/s (hover to see current wind gust speed)